Slayton, MN

6:19 AM CDT on July 26, 2017 (GMT -0500)
Slayton

Weather History for KDVP - December, 2013

Change the Weather History Date:

Sunday, December 22, 2013

  Actual Average (KOTG) Record (KOTG)
Temperature  
Mean Temperature 0 °F -  
Max Temperature 5 °F 22 °F 45 °F (1979)
Min Temperature -7 °F 8 °F -24 °F (1983)
Degree Days  
Heating Degree Days 66    
Moisture  
Dew Point -2 °F    
Average Humidity 83    
Maximum Humidity 89    
Minimum Humidity 75    
Precipitation  
Precipitation 0.00 in - - ()
Sea Level Pressure  
Sea Level Pressure 30.09 in    
Wind  
Wind Speed 13 mph (NW)    
Max Wind Speed 21 mph    
Max Gust Speed 22 mph    
Visibility 8 miles    
Events Snow    
Averages and records for this station are not official NWS values.
T = Trace of Precipitation, MM = Missing Value Source: NWS Daily Summary

Daily Weather History Graph

Daily Weather History Graph

Search for Another Location

Airport or City:

Trip Planner

Search our weather history database for the weather conditions in past years. The results will help you decide how hot, cold, wet, or windy it might be!

Date:

Astronomy

Dec. 22, 2013 Rise Set
Actual Time 7:55 AM CST 4:48 PM CST
Civil Twilight 7:22 AM CST 5:21 PM CST
Nautical Twilight 6:45 AM CST 5:58 PM CST
Astronomical Twilight 6:10 AM CST 6:33 PM CST
Moon 10:12 PM CST (12/22) 10:42 AM CST (12/22)
Length of Visible Light 9h 59m
Length of Day
8h 53m
Waning Gibbous, 76% of the Moon is Illuminated
Dec 22
Waning Gibbous
Dec 25
Last Quarter
Jan 1
New
Jan 7
First Quarter
Jan 15
Full

Hourly Weather History & Observations

Time (CST) Temp. Windchill Dew Point Humidity Pressure Visibility Wind Dir Wind Speed Gust Speed Precip Events Conditions
12:14 AM 4.8 °F -11.8 °F 1.9 °F 88% 29.94 in 5.0 mi NNW 12.7 mph - N/A   Overcast
12:34 AM 4.6 °F -12.0 °F 1.9 °F 89% 29.94 in 5.0 mi NNW 12.7 mph - N/A Snow Light Snow
12:55 AM 4.8 °F -12.5 °F 2.1 °F 89% 29.94 in 5.0 mi NNW 13.8 mph - N/A Snow Light Snow
1:13 AM 4.8 °F -13.2 °F 2.1 °F 89% 29.95 in 5.0 mi NNW 15.0 mph - N/A Snow Light Snow
1:34 AM 4.6 °F -12.0 °F 2.1 °F 89% 29.96 in 4.0 mi North 12.7 mph - N/A Snow Light Snow
1:54 AM 4.5 °F -12.3 °F 1.6 °F 88% 29.97 in 4.0 mi NNW 12.7 mph - N/A Snow Light Snow
2:14 AM 4.1 °F -11.1 °F 1.2 °F 88% 29.97 in 5.0 mi NNW 10.4 mph - N/A Snow Light Snow
2:34 AM 4.1 °F -9.2 °F 1.2 °F 88% 29.97 in 5.0 mi NNW 8.1 mph - N/A Snow Light Snow
2:54 AM 4.1 °F -10.2 °F 1.0 °F 87% 29.98 in 5.0 mi NW 9.2 mph - N/A Snow Light Snow
3:14 AM 4.1 °F -10.2 °F 1.2 °F 88% 29.99 in 7.0 mi NW 9.2 mph - N/A   Overcast
3:34 AM 3.9 °F -10.4 °F 0.9 °F 87% 30.00 in 7.0 mi NNW 9.2 mph - N/A Snow Light Snow
3:54 AM 3.6 °F -9.8 °F 0.5 °F 87% 29.99 in 10.0 mi NW 8.1 mph - N/A   Overcast
4:13 AM 3.6 °F -11.8 °F 0.5 °F 87% 29.99 in 10.0 mi NW 10.4 mph - N/A   Overcast
4:34 AM 3.0 °F -12.5 °F -0.4 °F 86% 30.00 in 7.0 mi NW 10.4 mph - N/A Snow Light Snow
4:54 AM 2.8 °F -14.3 °F -0.6 °F 86% 29.99 in 5.0 mi NW 12.7 mph - N/A Snow Light Snow
5:14 AM 2.8 °F -10.7 °F -0.6 °F 86% 29.99 in 4.0 mi NW 8.1 mph - N/A Snow Light Snow
5:33 AM 2.3 °F -13.4 °F -1.3 °F 85% 29.99 in 5.0 mi NW 10.4 mph - N/A   Overcast
5:54 AM 2.3 °F -14.2 °F -1.3 °F 85% 29.99 in 7.0 mi NNW 11.5 mph 16.1 mph N/A   Scattered Clouds
6:14 AM 2.3 °F -15.7 °F -1.3 °F 85% 29.99 in 10.0 mi NW 13.8 mph - N/A   Clear
6:34 AM 1.8 °F -15.7 °F -1.8 °F 85% 29.99 in 10.0 mi NW 12.7 mph - N/A   Clear
6:55 AM 1.2 °F -17.8 °F -2.4 °F 85% 30.00 in 10.0 mi NW 15.0 mph - N/A   Clear
7:14 AM 0.9 °F -16.0 °F -2.6 °F 86% 30.00 in 10.0 mi NW 11.5 mph - N/A   Clear
7:34 AM 0.9 °F -16.0 °F -2.6 °F 86% 30.00 in 10.0 mi NNW 11.5 mph 17.3 mph N/A   Clear
7:54 AM 0.5 °F -16.5 °F -3.1 °F 85% 30.00 in 10.0 mi NNW 11.5 mph - N/A   Clear
8:14 AM 0.5 °F -18.0 °F -3.1 °F 85% 30.01 in 10.0 mi NNW 13.8 mph - N/A   Clear
8:35 AM 0.9 °F -16.8 °F -2.6 °F 86% 30.02 in 10.0 mi NW 12.7 mph - N/A   Clear
8:54 AM 1.0 °F -19.9 °F -2.6 °F 85% 30.03 in 10.0 mi NW 18.4 mph - N/A   Clear
9:14 AM 1.0 °F -18.7 °F -2.4 °F 86% 30.04 in 10.0 mi NW 16.1 mph - N/A   Clear
9:34 AM 1.4 °F -17.6 °F -1.8 °F 86% 30.04 in 7.0 mi NW 15.0 mph - N/A   Clear
9:54 AM 3.0 °F -15.5 °F -0.4 °F 86% 30.05 in 4.0 mi NNW 15.0 mph 21.9 mph N/A   Mostly Cloudy
10:14 AM 3.9 °F -14.3 °F -0.0 °F 84% 30.07 in 1.5 mi NNW 15.0 mph - N/A Snow Light Snow
10:34 AM 4.3 °F -15.1 °F 1.0 °F 86% 30.08 in 1.0 mi NNW 17.3 mph 20.7 mph N/A Snow Light Snow
10:54 AM 4.6 °F -12.8 °F 0.9 °F 84% 30.08 in 2.0 mi NW 13.8 mph - N/A Snow Light Snow
11:14 AM 4.6 °F -14.0 °F 1.0 °F 85% 30.08 in 4.0 mi NW 16.1 mph - N/A   Overcast
11:33 AM 4.8 °F -13.2 °F 1.4 °F 86% 30.08 in 3.0 mi NW 15.0 mph - N/A   Overcast
11:54 AM 4.1 °F -16.4 °F 0.1 °F 84% 30.07 in 3.0 mi NW 19.6 mph - N/A   Overcast
12:13 PM 3.7 °F -16.9 °F -0.4 °F 83% 30.07 in 4.0 mi NW 19.6 mph - N/A   Haze
12:34 PM 3.9 °F -16.6 °F -0.6 °F 82% 30.07 in 3.0 mi NW 19.6 mph - N/A   Haze
12:53 PM 4.1 °F -15.3 °F -0.0 °F 83% 30.08 in 4.0 mi NW 17.3 mph 20.7 mph N/A   Mostly Cloudy
1:16 PM 3.7 °F -13.9 °F -0.8 °F 82% 30.08 in 7.0 mi NW 13.8 mph - N/A   Mostly Cloudy
1:33 PM 4.1 °F -16.9 °F -0.6 °F 81% 30.08 in 10.0 mi NW 20.7 mph - N/A   Mostly Cloudy
1:54 PM 4.6 °F -13.4 °F 0.3 °F 82% 30.09 in 7.0 mi NW 15.0 mph - N/A   Overcast
2:14 PM 5.4 °F -13.7 °F 0.5 °F 80% 30.09 in 10.0 mi NW 17.3 mph - N/A   Scattered Clouds
2:34 PM 5.4 °F -13.1 °F 0.3 °F 80% 30.09 in 10.0 mi NW 16.1 mph - N/A   Scattered Clouds
2:55 PM 4.6 °F -14.0 °F -0.6 °F 79% 30.10 in 10.0 mi WNW 16.1 mph - N/A   Clear
3:14 PM 4.5 °F -16.4 °F -0.6 °F 80% 30.11 in 10.0 mi WNW 20.7 mph - N/A   Clear
3:34 PM 4.3 °F -14.5 °F -0.8 °F 80% 30.12 in 10.0 mi WNW 16.1 mph - N/A   Clear
3:54 PM 3.9 °F -15.6 °F -0.9 °F 80% 30.13 in 10.0 mi WNW 17.3 mph - N/A   Scattered Clouds
4:14 PM 3.7 °F -15.8 °F -1.3 °F 80% 30.14 in 10.0 mi WNW 17.3 mph - N/A   Clear
4:34 PM 3.7 °F -13.2 °F -1.3 °F 80% 30.15 in 10.0 mi WNW 12.7 mph - N/A   Mostly Cloudy
4:55 PM 4.1 °F -15.9 °F -0.8 °F 80% 30.15 in 10.0 mi NW 18.4 mph - N/A   Overcast
5:14 PM 4.1 °F -15.3 °F -1.1 °F 79% 30.16 in 10.0 mi NW 17.3 mph - N/A   Overcast
5:34 PM 3.2 °F -13.9 °F -2.0 °F 79% 30.17 in 10.0 mi NW 12.7 mph - N/A   Mostly Cloudy
5:54 PM 2.7 °F -14.5 °F -2.2 °F 80% 30.17 in 10.0 mi NW 12.7 mph - N/A   Scattered Clouds
6:14 PM 2.1 °F -16.6 °F -2.9 °F 79% 30.18 in 10.0 mi NW 15.0 mph - N/A   Mostly Cloudy
6:35 PM 1.6 °F -15.1 °F -3.6 °F 79% 30.19 in 10.0 mi NW 11.5 mph - N/A   Scattered Clouds
6:54 PM 0.1 °F -16.0 °F -4.5 °F 81% 30.20 in 10.0 mi NW 10.4 mph - N/A   Clear
7:15 PM -1.1 °F -17.6 °F -5.4 °F 82% 30.20 in 10.0 mi WNW 10.4 mph - N/A   Clear
7:34 PM -1.3 °F -19.6 °F -5.8 °F 81% 30.21 in 10.0 mi WNW 12.7 mph - N/A   Clear
7:55 PM -1.3 °F -21.0 °F -6.0 °F 81% 30.22 in 10.0 mi WNW 15.0 mph - N/A   Clear
8:14 PM -2.2 °F -21.5 °F -7.1 °F 80% 30.23 in 10.0 mi NW 13.8 mph - N/A   Clear
8:34 PM -3.1 °F -23.3 °F -7.6 °F 81% 30.23 in 10.0 mi WNW 15.0 mph - N/A   Clear
8:54 PM -3.6 °F -24.0 °F -8.5 °F 80% 30.24 in 10.0 mi WNW 15.0 mph - N/A   Clear
9:14 PM -4.2 °F -24.0 °F -9.4 °F 78% 30.24 in 10.0 mi NW 13.8 mph - N/A   Clear
9:34 PM -4.9 °F -24.9 °F -9.8 °F 80% 30.25 in 10.0 mi NW 13.8 mph - N/A   Clear
9:55 PM -4.9 °F -25.6 °F -10.1 °F 78% 30.26 in 10.0 mi WNW 15.0 mph - N/A   Clear
10:14 PM -5.3 °F -26.1 °F -10.5 °F 78% 30.26 in 10.0 mi WNW 15.0 mph - N/A   Clear
10:34 PM -5.8 °F -26.8 °F -11.2 °F 77% 30.27 in 10.0 mi WNW 15.0 mph - N/A   Clear
10:55 PM -5.8 °F -27.5 °F -11.2 °F 77% 30.28 in 10.0 mi WNW 16.1 mph - N/A   Clear
11:15 PM -6.5 °F -27.7 °F -11.9 °F 77% 30.29 in 10.0 mi WNW 15.0 mph - N/A   Clear
11:34 PM -6.7 °F -27.2 °F -12.3 °F 77% 30.30 in 10.0 mi WNW 13.8 mph - N/A   Clear
11:53 PM -7.1 °F -29.1 °F -13.0 °F 75% 30.30 in 10.0 mi NW 16.1 mph - N/A   Clear